Cloud_Cover
100 100 100 100 100 100 100 100 100 64 100 100 100 100 100 100 100 100 100 100 100 100 100 100 93 94 72 60 100 100 100 100 100 100 100 100 100 71 21 4 22 41 89 98 100 100 100 100 100 100 98 86 96 100
100 100 100 100 100 100 100 99 100 66 100 100 100 100 100 100 100 100 100 100 100 100 100 100 65 89 69 96 100 100 100 100 100 100 100 100 7 5 5 5 39 82 60 100 100 100 100 100 100 100 100 100 100 100
100 100 100 100 100 100 96 100 100 100 100 100 100 100 100 100 100 100 100 100 95 100 100 100 100 24 99 97 100 100 100 100 100 97 48 75 95 100 100 100 68 100 100 100 100 100 84 96 100 100 100 100 99 97
100 100 100 88 100 97 100 100 100 100 100 100 100 100 100 100 100 100 100 100 100 100 100 100 53 87 96 96 100 100 100 100 36 100 100 100 100 100 100 100 100 100 100 96 97 100 100 100 100 100 100 100 100 100
100 100 100 100 69 84 100 100 100 100 100 100 100 100 100 100 100 100 100 100 100 99 100 100 87 96 95 100 100 100 100 100 100 100 100 100 100 100 100 100 100 100 100 100 100 100 100 100 100 100 100 96 100 100
100 100 93 92 100 100 100 100 100 100 100 100 100 100 100 100 100 100 100 100 100 100 100 100 99 100 100 100 100 100 100 100 100 100 100 100 100 100 100 100 100 100 100 100 100 100 100 100 100 100 97 90 92 100
100 100 99 99 100 8 21 93 100 100 100 100 100 100 100 100 100 100 100 100 100 100 100 94 100 100 100 100 100 100 100 100 100 100 100 100 100 100 100 97 100 100 100 100 100 100 98 100 100 92 92 96 100 100
100 50 46 98 97 19 76 100 100 100 100 100 100 100 100 100 100 100 100 100 100 100 100 100 100 100 100 100 100 100 100 100 100 100 100 100 100 100 100 100 100 100 100 100 100 100 100 56 42 75 99 100 100 100
25 21 10 5 12 100 100 100 100 100 100 100 100 100 100 100 100 100 100 100 100 100 100 100 100 100 100 100 100 100 100 100 100 100 100 100 100 100 100 100 100 100 100 100 100 100 84 62 85 98 100 100 100 100
22 5 5 5 100 100 100 100 100 100 100 100 100 100 100 100 100 100 100 100 100 100 100 100 100 100 100 100 100 100 100 100 100 100 100 100 100 100 100 100 100 100 100 100 100 99 98 96 100 100 100 100 100 100
2 1 6 100 100 100 100 100 100 100 100 100 100 100 100 100 100 100 100 100 100 100 100 100 100 100 100 100 100 100 100 100 100 100 100 100 100 100 100 100 100 100 100 100 100 100 100 100 100 100 100 100 100 100
0 26 100 100 100 100 100 100 100 100 100 100 100 100 100 100 100 100 99 100 100 100 100 100 100 100 100 100 100 100 100 100 100 100 100 100 100 100 100 100 100 100 100 100 100 100 100 100 100 100 100 100 98 100
100 100 100 100 100 100 100 100 100 100 100 100 100 100 100 100 100 100 100 100 100 100 100 100 100 100 100 100 100 100 100 100 100 100 100 91 100 100 100 99 97 100 100 100 100 100 100 100 100 100 95 90 77 99
100 100 100 100 100 100 100 100 100 100 100 100 100 100 100 100 100 100 100 100 100 100 94 100 100 100 100 100 100 100 100 100 100 100 67 98 100 100 99 96 70 38 18 33 58 64 91 100 100 100 100 100 100 100
100 100 100 99 100 100 100 100 100 100 100 100 100 100 100 100 100 100 100 100 100 100 100 100 100 100 100 100 100 100 100 100 100 100 100 100 100 99 93 96 95 98 96 97 96 100 89 66 93 100 99 100 100 99
100 81 93 100 100 100 100 100 100 100 100 100 100 100 100 100 100 100 100 100 100 100 100 100 100 100 100 100 100 100 100 100 100 100 100 100 100 100 100 88 93 94 97 86 60 73 81 87 72 98 100 84 88 99
100 100 100 100 100 100 100 100 100 47 70 99 100 100 100 100 100 100 100 100 100 100 100 100 100 100 100 100 100 100 100 100 100 100 100 100 100 100 100 100 100 100 83 71 60 56 62 96 100 100 100 100 100 100
100 100 100 100 100 100 100 99 100 100 100 100 100 100 100 100 100 100 100 100 100 100 100 100 100 100 100 100 100 100 100 100 100 100 100 100 100 100 100 100 97 97 100 100 100 100 100 100 100 100 100 100 100 100
100 100 100 100 100 100 100 98 100 100 100 100 100 100 100 100 100 100 100 100 100 100 100 100 100 100 100 100 100 100 100 100 100 100 100 100 100 100 100 99 96 98 100 100 100 100 100 100 100 100 100 100 100 100
100 100 100 100 100 99 100 100 100 100 100 100 100 100 100 100 100 100 100 100 100 100 100 100 97 95 100 100 100 100 100 100 100 100 100 100 100 100 100 100 100 100 100 100 100 100 100 100 100 100 100 100 100 100
100 100 100 100 100 100 100 100 100 100 100 100 100 100 100 100 100 100 100 100 100 100 100 100 100 100 100 100 100 100 100 100 100 98 100 100 100 100 100 100 100 100 100 100 100 100 100 100 100 100 100 100 100 100
100 100 100 100 100 100 100 100 100 100 100 93 100 100 100 100 100 100 100 100 100 100 100 100 100 100 100 100 100 99 100 100 95 100 100 100 100 100 100 100 100 100 100 100 100 100 100 94 94 96 99 100 100 100
22 76 87 94 97 61 100 97 100 100 100 100 98 96 100 100 100 100 100 100 100 100 100 100 99 99 100 93 90 94 86 84 88 91 100 100 100 100 100 100 100 100 100 100 100 100 98 86 86 95 99 100 100 100
20 11 7 20 9 18 21 48 12 11 34 75 84 95 99 100 93 96 100 100 98 93 100 100 100 98 100 83 99 100 82 88 88 99 100 100 100 100 100 100 100 100 100 100 100 100 100 100 100 100 100 100 97 99
6 25 8 5 5 5 18 16 5 5 62 40 23 44 36 43 57 88 100 100 100 91 98 96 100 100 95 100 100 87 94 100 100 100 94 100 100 100 100 100 100 100 100 100 100 100 100 100 100 100 100 100 100 100
53 46 23 59 33 31 51 27 15 5 33 29 77 22 5 43 55 75 85 83 97 95 78 84 82 88 92 91 97 100 99 100 98 95 100 100 100 100 98 99 100 100 100 100 100 100 98 99 93 89 100 100 95 96
8 16 13 5 38 9 40 42 7 12 64 59 51 27 8 10 78 61 90 97 96 96 90 85 90 89 77 99 93 95 98 99 100 100 100 100 100 98 100 100 100 100 100 99 78 73 70 82 92 95 100 100 100 100
57 5 4 18 21 31 84 100 98 97 91 94 84 84 20 9 8 86 88 95 87 91 88 96 88 93 100 82 94 100 100 100 100 100 100 100 100 100 100 100 100 100 95 85 79 81 95 83 87 98 100 100 100 100
76 69 5 69 78 98 99 48 84 81 98 97 88 96 98 73 70 80 97 89 91 100 91 92 100 100 100 100 100 100 100 100 100 97 99 100 100 100 97 98 99 100 100 100 88 71 58 52 76 90 100 100 100 100
5 45 79 100 82 84 85 86 98 99 100 100 99 92 72 82 68 79 74 68 87 97 93 99 100 100 100 96 98 99 97 98 99 92 96 94 100 95 90 94 95 100 100 100 100 100 99 95 100 100 100 100 99 100
95 86 42 96 90 74 83 100 100 100 100 100 100 96 94 77 65 82 83 93 79 98 100 100 100 100 100 100 100 100 100 100 100 98 79 62 97 98 96 97 95 87 85 78 85 88 81 94 97 96 89 95 100 100
99 92 79 83 77 81 88 98 93 100 99 100 100 100 100 80 51 54 88 88 89 95 96 100 100 100 100 100 100 100 99 99 99 95 97 96 100 100 100 96 85 97 100 100 99 92 99 100 100 100 100 94 98 100
99 99 95 98 93 96 97 91 93 99 100 90 98 100 100 98 42 52 99 96 75 86 100 100 99 99 96 99 100 100 100 100 100 96 92 93 86 96 100 100 100 100 100 100 96 96 96 91 93 86 96 98 98 95